Volver al catálogo

THORAD AGENA D DEB

ActivoLEO
NORAD 4768·DEBRIS·🇺🇸 United States

Lanzado Apr 8, 1970 desde Vandenberg Space Force Base

Loading…

Próximos Pases (próximas 24 horas)

TLE

ActualizadoSource: Space-Track

Época: Sep 14, 2026, 03:20 UTC

1 04768U 70025DN  26257.13948813  .00000204  00000-0  27941-3 0  9990
2 04768 100.1571 307.7436 0030899 152.9846 230.0488 13.71794705810059

Sigue THORAD AGENA D DEB en tiempo real con AllMySat

Download on the App Store